Farmingdale, NY

11:45 AM EDT on October 19, 2017 (GMT -0400)
Republic

Weather History for KFRG - December, 2012

Change the Weather History Date:

Wednesday, December 5, 2012

  Actual Average Record
Temperature  
Mean Temperature 46 °F -  
Max Temperature 54 °F 45 °F 69 °F (2001)
Min Temperature 35 °F 32 °F 23 °F (2000)
Degree Days  
Heating Degree Days 20    
Moisture  
Dew Point 35 °F    
Average Humidity 62    
Maximum Humidity 93    
Minimum Humidity 38    
Precipitation  
Precipitation 0.01 in - - ()
Sea Level Pressure  
Sea Level Pressure 30.04 in    
Wind  
Wind Speed 11 mph (NW)    
Max Wind Speed 17 mph    
Max Gust Speed 28 mph    
Visibility 10 miles    
Events Rain    
Averages and records for this station are not official NWS values.
T = Trace of Precipitation, MM = Missing Value Source: NWS Daily Summary

Daily Weather History Graph

Daily Weather History Graph

Search for Another Location

Airport or City:

Trip Planner

Search our weather history database for the weather conditions in past years. The results will help you decide how hot, cold, wet, or windy it might be!

Date:

Astronomy

Dec. 05, 2012 Rise Set
Actual Time 7:02 AM EST 4:26 PM EST
Civil Twilight 6:32 AM EST 4:56 PM EST
Nautical Twilight 5:57 AM EST 5:30 PM EST
Astronomical Twilight 5:24 AM EST 6:04 PM EST
Moon 11:14 PM EST (12/5) 11:23 AM EST (12/5)
Length of Visible Light 10h 24m
Length of Day
9h 23m
Waning Gibbous, 60% of the Moon is Illuminated
Dec 5
Waning Gibbous
Dec 6
Last Quarter
Dec 13
New
Dec 20
First Quarter
Dec 28
Full

Hourly Weather History & Observations

Time (EST) Temp. Windchill Dew Point Humidity Pressure Visibility Wind Dir Wind Speed Gust Speed Precip Events Conditions
12:53 AM 53.1 °F - 50.0 °F 89% 29.97 in 8.0 mi SSW 9.2 mph - N/A   Clear
1:53 AM 52.0 °F - 50.0 °F 93% 29.96 in 8.0 mi SW 8.1 mph - N/A   Clear
2:53 AM 53.1 °F - 50.0 °F 89% 29.94 in 9.0 mi SW 10.4 mph - 0.00 in   Mostly Cloudy
3:53 AM 53.1 °F - 50.0 °F 89% 29.92 in 9.0 mi SW 9.2 mph - 0.00 in Rain Light Rain
4:53 AM 52.0 °F - 50.0 °F 93% 29.94 in 8.0 mi West 3.5 mph - 0.00 in   Mostly Cloudy
5:53 AM 53.1 °F - 50.0 °F 89% 29.95 in 9.0 mi NW 6.9 mph - N/A   Overcast
6:53 AM 54.0 °F - 46.9 °F 77% 29.97 in 10.0 mi WNW 9.2 mph - N/A   Scattered Clouds
7:53 AM 53.1 °F - 43.0 °F 69% 29.99 in 10.0 mi NW 11.5 mph 21.9 mph N/A   Overcast
9:53 AM 54.0 °F - 37.9 °F 55% 30.02 in 10.0 mi NW 15.0 mph 23.0 mph N/A   Clear
10:53 AM 52.0 °F - 37.0 °F 57% 30.01 in 10.0 mi NW 13.8 mph 20.7 mph N/A   Clear
11:53 AM 52.0 °F - 34.0 °F 50% 30.00 in 10.0 mi NW 13.8 mph 23.0 mph 0.01 in   Clear
12:53 PM 52.0 °F - 32.0 °F 47% 29.99 in 10.0 mi NNW 17.3 mph 25.3 mph N/A   Clear
1:53 PM 53.1 °F - 30.9 °F 43% 30.00 in 10.0 mi NW 10.4 mph 24.2 mph N/A   Clear
2:53 PM 53.1 °F - 32.0 °F 45% 30.01 in 10.0 mi NW 15.0 mph 20.7 mph N/A   Clear
3:53 PM 51.1 °F - 30.9 °F 46% 30.03 in 10.0 mi NNW 15.0 mph 21.9 mph N/A   Mostly Cloudy
4:53 PM 46.9 °F - 30.0 °F 52% 30.07 in 10.0 mi NNW 17.3 mph 24.2 mph N/A   Partly Cloudy
5:53 PM 44.1 °F 37.1 °F 25.0 °F 47% 30.10 in 10.0 mi NNW 15.0 mph 27.6 mph N/A   Clear
6:53 PM 42.1 °F 34.5 °F 18.0 °F 38% 30.14 in 10.0 mi NW 15.0 mph 27.6 mph N/A   Clear
7:53 PM 39.9 °F 32.9 °F 19.9 °F 45% 30.17 in 10.0 mi NNW 11.5 mph 23.0 mph N/A   Clear
8:53 PM 39.0 °F 31.8 °F 21.0 °F 49% 30.17 in 10.0 mi NW 11.5 mph 20.7 mph N/A   Clear
9:53 PM 37.9 °F 30.5 °F 21.0 °F 51% 30.19 in 10.0 mi NW 11.5 mph - N/A   Clear
10:53 PM 37.0 °F 27.7 °F 19.9 °F 50% 30.21 in 10.0 mi NNW 16.1 mph 21.9 mph N/A   Clear
11:53 PM 35.1 °F 27.4 °F 19.9 °F 54% 30.21 in 10.0 mi NNW 10.4 mph - N/A   Clear